Lapse_Rate
8.6 8.8 8.8 8.4 8.3 8.1 8.2 8.2 7.9 7.4 7.2 7.0 6.8 6.5 6.5 6.4 6.4 6.1 5.3 4.2 3.2 3.0 2.7 2.8 2.7 2.2 4.3 8.1 8.0 7.0 3.5 3.5 6.2 7.7 8.9 8.5 7.9 7.7 6.5 6.7 7.0 6.5 6.5 7.2 7.6 7.5 7.5
8.8 8.9 8.9 8.7 8.4 8.1 8.5 8.2 8.0 7.7 7.6 7.2 6.7 6.5 6.2 6.1 6.1 6.1 5.8 5.2 4.2 3.6 2.8 3.2 3.5 2.7 8.1 6.9 8.7 6.4 6.1 6.7 8.9 8.6 8.9 8.8 8.1 8.3 7.3 6.9 6.6 7.0 7.1 7.0 7.4 7.3 7.4
8.8 9.3 8.9 8.4 8.2 8.8 8.3 8.3 8.3 7.7 7.6 7.5 7.2 6.8 6.3 6.0 5.9 5.8 5.2 4.8 4.2 3.9 3.5 3.4 3.8 6.7 8.1 7.5 7.3 6.6 5.6 7.3 7.3 8.8 8.6 9.0 8.9 8.0 7.7 6.5 7.7 7.2 6.5 6.5 6.7 7.1 6.6
8.3 8.1 8.5 8.8 8.4 8.3 8.3 8.4 8.5 8.0 7.7 7.6 7.3 7.2 6.8 6.2 6.0 5.7 5.0 4.5 3.5 3.8 3.2 3.1 3.5 8.1 7.8 6.8 5.4 4.5 5.0 5.8 7.0 7.5 7.6 9.2 9.1 8.3 7.6 7.8 7.0 6.5 6.5 6.5 6.5 6.5 6.9
8.2 8.1 8.0 8.4 8.4 8.0 8.4 8.6 8.5 8.3 8.1 7.6 7.2 7.1 6.8 6.3 6.2 5.9 5.4 4.6 3.5 3.8 3.8 3.8 5.8 8.2 7.4 6.6 5.4 6.0 6.4 7.5 8.9 8.4 8.6 9.2 8.7 7.8 7.5 6.5 6.5 6.5 6.5 6.5 6.5 6.6 6.5
8.8 8.6 8.4 8.2 8.7 7.9 8.4 9.0 8.5 8.4 8.0 7.5 7.3 7.1 6.7 6.4 6.3 6.0 5.6 4.3 4.8 5.2 7.9 8.2 9.2 7.7 7.4 7.6 7.7 7.6 7.3 8.0 8.3 8.4 8.2 8.1 7.8 6.5 6.5 6.5 6.5 6.5 6.5 6.5 6.5 6.5 6.5
8.5 8.9 9.1 8.8 8.5 8.7 8.9 8.7 8.8 8.3 8.1 7.5 7.3 7.1 6.8 6.5 6.5 6.2 6.8 9.5 8.6 8.1 8.7 7.7 7.7 7.7 8.1 7.4 6.3 8.2 7.0 8.1 8.3 7.8 6.5 7.3 6.5 6.5 6.5 6.5 6.5 6.5 6.5 6.5 6.5 6.5 6.5
8.8 8.3 8.0 8.1 8.3 8.4 8.7 8.5 8.5 8.5 7.9 7.4 7.3 7.1 6.8 6.5 6.4 6.2 8.4 8.6 8.4 8.6 7.1 8.4 8.2 8.2 8.5 8.8 7.4 7.6 9.0 7.4 7.1 6.5 6.4 6.5 6.5 6.5 6.5 6.5 6.5 6.5 6.5 6.5 6.5 6.5 6.5
8.3 8.5 8.5 8.5 8.8 8.7 8.9 8.9 8.3 8.6 7.7 7.3 7.2 7.1 6.9 6.4 6.2 7.8 8.9 8.9 8.7 8.3 7.1 7.3 8.2 8.0 8.1 8.6 7.4 7.3 8.3 7.6 6.5 6.5 6.5 6.5 6.5 6.5 6.5 6.5 6.5 6.5 6.5 6.5 6.5 6.5 6.5
8.4 8.5 8.4 8.6 8.7 8.7 9.0 8.9 8.6 8.7 7.9 7.6 7.1 6.8 6.7 6.6 7.1 8.9 8.9 9.0 8.4 8.1 6.5 6.5 6.8 7.6 8.1 8.2 6.8 8.3 8.4 7.6 6.6 6.5 6.5 6.5 6.5 6.5 6.5 6.5 6.5 6.5 6.5 6.5 6.5 6.5 6.5
8.3 8.2 8.3 8.2 8.4 8.3 8.5 8.9 8.8 8.5 8.0 7.7 7.0 6.8 6.7 6.5 8.8 8.9 9.3 8.4 7.3 8.3 6.5 6.5 6.7 8.8 8.3 7.2 7.3 7.2 8.4 7.7 6.5 6.5 6.5 6.5 6.5 6.5 6.5 6.5 6.5 6.5 6.5 6.5 6.5 6.5 6.5
8.4 8.5 8.4 8.3 8.3 8.4 8.7 8.7 8.9 8.3 8.2 7.7 7.1 6.9 6.8 7.9 7.9 9.3 8.9 8.0 8.5 6.5 6.5 6.5 6.8 6.5 6.5 6.9 6.9 7.4 7.4 8.1 7.6 6.5 6.5 6.5 7.0 6.5 6.5 6.5 6.5 6.5 6.5 6.5 6.5 6.5 6.5
8.7 8.7 8.7 8.7 8.5 8.3 8.6 8.6 8.6 8.7 8.3 7.5 7.0 6.9 7.1 8.5 7.8 8.6 8.3 8.8 6.5 6.5 6.5 6.5 6.5 6.5 6.5 6.5 6.5 6.5 6.5 6.5 6.5 6.5 6.5 6.5 6.5 6.5 6.6 6.5 6.5 6.5 6.5 6.5 6.5 6.5 6.5
8.6 8.4 8.2 8.2 8.6 8.4 8.1 8.5 8.6 8.8 8.2 7.6 7.1 6.6 7.7 8.6 8.1 7.7 9.1 6.7 6.5 6.5 6.5 6.5 6.5 6.5 6.5 6.5 6.5 6.5 6.5 6.5 6.5 6.5 6.5 6.5 6.5 6.5 6.5 6.5 6.5 6.5 6.5 6.5 6.5 6.5 6.5
8.6 8.5 8.5 8.5 8.5 8.5 7.8 8.6 8.4 8.4 8.1 7.7 7.2 9.0 7.8 8.9 7.6 7.2 7.6 6.5 6.5 6.5 6.5 6.5 6.5 6.5 6.5 6.5 6.5 6.5 6.5 6.5 6.5 6.5 6.5 6.5 6.5 6.5 6.5 6.5 6.5 6.5 6.5 6.5 6.5 6.5 6.5
8.9 8.9 8.3 8.5 8.4 8.4 8.3 8.4 8.2 8.3 8.3 8.0 7.9 7.8 8.9 9.1 7.5 6.2 6.6 6.5 6.5 6.6 6.5 6.5 6.5 6.5 6.5 6.5 6.5 6.5 6.5 6.5 6.5 6.5 6.5 6.5 6.5 6.5 6.5 6.6 6.5 6.5 6.5 6.5 6.5 6.5 6.5
8.7 9.0 9.3 8.7 8.5 8.2 7.9 8.0 8.2 8.3 8.5 8.0 7.7 7.6 9.1 8.2 7.3 6.7 6.5 6.5 6.5 7.2 7.0 6.5 6.5 6.5 6.5 6.5 6.5 6.5 6.5 6.5 6.5 6.5 6.5 6.5 6.5 6.5 6.5 6.5 6.5 6.5 6.5 6.5 6.5 6.5 6.5
8.7 8.6 8.7 8.5 8.2 8.5 8.5 8.4 7.9 8.1 8.1 8.0 7.6 6.5 8.1 7.5 6.6 7.1 6.5 6.5 6.9 6.6 7.3 6.5 6.5 6.5 6.5 6.5 6.5 6.5 6.5 6.5 7.1 6.6 6.5 6.5 6.5 6.5 6.5 6.5 6.5 6.5 6.5 6.5 6.5 6.5 6.5
8.3 8.4 8.6 8.7 8.7 8.8 8.8 8.4 8.2 7.9 7.9 8.9 7.5 7.6 7.6 7.0 6.5 6.5 6.6 6.5 6.7 6.5 6.5 6.5 6.5 6.5 6.5 6.5 6.5 6.5 6.5 6.7 7.0 6.5 6.5 6.5 6.5 6.5 6.5 6.5 6.5 6.5 6.5 6.5 6.5 6.5 6.5
8.4 8.6 8.6 8.7 9.0 8.9 8.6 8.3 7.8 7.7 8.0 8.0 6.7 6.5 7.4 6.6 7.3 6.5 6.5 6.5 6.5 7.2 6.6 6.8 6.5 6.6 6.5 6.5 6.5 6.5 6.5 6.5 7.0 6.8 5.7 6.6 6.5 6.5 6.5 6.5 6.5 6.5 6.5 6.5 6.5 6.5 6.5
8.1 8.0 8.1 8.3 8.2 8.3 8.4 8.3 8.0 7.8 7.7 8.1 6.3 6.7 7.4 6.5 6.6 6.5 6.5 6.5 6.5 6.5 6.9 7.1 6.5 6.5 6.5 6.5 6.5 6.5 6.5 6.5 6.6 6.7 6.6 6.5 6.5 6.5 6.5 6.5 6.5 6.5 6.5 6.5 6.5 6.5 6.5
7.9 7.7 7.6 7.7 7.9 8.2 8.1 8.1 8.1 7.8 7.7 8.1 6.7 7.0 6.8 6.8 7.0 6.5 6.5 6.5 6.5 6.5 6.5 6.5 6.5 6.5 6.5 6.5 6.5 6.5 6.5 6.5 6.5 6.5 6.5 6.5 6.5 6.5 6.5 6.5 6.5 6.5 6.5 6.5 6.5 6.5 6.5
7.8 7.5 7.3 7.0 7.3 7.4 7.9 8.1 7.9 7.8 7.9 8.1 8.3 7.8 7.0 6.8 6.5 6.5 6.5 6.5 6.5 6.5 6.8 7.0 6.6 6.5 6.5 6.5 7.1 7.2 7.3 7.1 6.7 6.5 6.5 6.5 6.5 6.5 6.5 6.5 6.5 6.5 6.5 6.5 6.5 6.5 6.5
7.5 7.5 7.7 7.4 7.1 7.4 7.4 7.5 7.8 7.8 7.9 9.3 8.8 7.7 6.8 6.5 6.5 6.5 6.5 6.6 6.5 6.5 6.5 6.8 7.2 6.5 7.2 8.1 7.9 7.7 7.4 7.1 6.9 6.6 6.8 6.5 6.5 6.5 6.5 6.5 6.5 6.5 6.5 6.5 6.5 6.5 6.5
7.4 7.3 7.4 7.5 7.5 7.2 7.3 7.4 7.3 7.7 7.9 8.3 9.0 8.0 7.3 6.5 6.7 6.6 6.6 6.5 6.9 7.0 6.6 6.7 7.2 7.9 8.3 7.4 6.5 6.5 6.5 6.5 6.5 6.5 6.5 6.5 6.5 6.5 6.5 6.5 6.5 6.5 6.5 6.5 6.5 6.5 6.5
7.4 7.3 7.1 7.1 7.3 7.5 7.0 7.0 7.4 7.1 7.8 7.9 9.1 8.9 7.6 6.6 6.6 7.4 6.6 6.8 6.5 6.5 6.5 6.9 7.8 8.4 7.8 6.5 6.5 6.5 6.5 6.5 6.5 6.5 6.5 6.5 6.5 6.5 6.5 6.5 6.5 6.5 6.5 6.9 6.5 6.5 6.5
6.8 6.8 6.9 7.1 6.8 7.1 7.0 6.8 7.0 7.2 7.2 7.8 8.5 8.7 8.0 7.1 7.8 7.7 6.7 6.7 7.3 6.7 6.5 6.7 6.9 6.9 7.0 6.5 6.5 6.5 6.5 6.5 6.5 6.5 6.5 6.5 6.5 6.5 6.5 6.5 6.5 6.5 6.5 7.0 6.5 6.5 6.9
6.7 6.7 7.1 7.4 7.3 7.3 7.1 6.7 7.0 7.3 6.9 7.1 7.3 8.6 7.7 6.6 7.7 8.2 8.1 7.2 7.3 7.2 6.5 6.9 6.7 6.7 6.6 6.5 6.5 6.5 6.5 6.5 6.5 6.5 6.5 6.5 6.5 6.5 6.5 6.5 6.5 6.8 6.7 6.5 6.6 7.2 7.4
7.0 6.9 6.8 6.7 6.9 7.2 7.1 6.7 7.0 7.6 7.0 7.0 6.8 7.5 8.0 7.1 7.0 8.6 8.7 8.8 8.5 8.1 7.3 7.4 6.9 6.9 7.1 6.5 6.5 6.5 6.5 6.5 6.5 6.5 6.5 6.5 6.5 6.5 6.5 6.5 6.6 7.2 6.9 7.6 7.8 7.4 7.5
Wind_Speed
11 11 13 12 11 11 11 10 11 11 11 11 12 14 15 15 16 17 17 17 17 19 20 19 18 18 12 6 10 4 4 2 10 10 13 14 15 18 17 13 12 18 14 12 15 14 12
11 12 12 13 12 11 10 9 9 12 13 12 13 15 15 16 17 19 19 19 19 20 20 20 16 13 7 12 5 4 3 2 6 12 10 12 9 14 10 14 15 4 15 15 15 15 13
13 11 12 12 11 12 10 11 12 15 14 13 13 15 15 16 17 19 20 21 23 25 25 23 14 10 10 15 6 4 4 4 3 9 13 11 10 10 5 12 15 11 15 15 16 18 16
16 13 11 9 13 13 11 11 12 16 15 14 15 17 15 15 17 18 20 23 25 27 28 18 12 8 9 10 12 14 13 17 14 11 8 7 9 13 11 4 6 10 12 13 4 10 9
17 16 12 11 12 11 10 13 15 16 16 15 15 16 16 16 16 18 20 26 28 22 13 4 8 9 10 6 6 10 18 12 14 13 9 3 7 14 11 15 14 14 14 12 9 10 6
19 17 16 13 11 12 12 14 14 17 16 15 14 15 15 17 17 17 21 29 22 6 4 5 0 6 8 4 3 2 5 12 6 13 11 12 10 12 14 16 19 18 16 12 13 6 12
18 18 19 18 14 12 15 15 15 16 16 15 13 16 17 16 16 16 18 7 3 5 3 8 3 9 12 7 7 7 6 9 7 16 18 20 15 19 26 23 19 15 14 16 8 0 7
19 18 16 15 13 13 14 15 15 15 16 14 14 15 16 15 13 15 9 4 5 4 13 16 22 26 23 6 6 9 7 10 10 16 19 11 20 22 18 18 19 19 17 18 12 7 8
18 19 19 18 18 15 15 16 13 14 17 14 16 16 15 15 11 6 4 3 4 10 7 10 9 11 11 16 15 9 12 10 12 17 21 19 9 20 17 15 18 20 20 17 15 7 11
20 18 20 20 20 17 13 18 12 14 16 15 15 15 14 14 6 4 2 2 8 5 5 3 3 3 4 7 9 23 11 13 10 15 13 15 19 10 19 22 18 21 19 16 17 11 9
21 20 20 20 19 15 14 16 14 13 13 15 14 15 13 7 5 5 4 9 9 2 6 3 2 2 5 9 8 7 26 20 21 9 5 8 13 21 19 18 18 19 14 12 15 14 14
22 21 21 21 19 16 14 16 14 13 13 14 13 15 14 5 3 6 8 7 4 4 6 3 2 2 4 10 4 4 7 16 10 18 13 19 5 10 19 11 16 5 8 7 6 7 10
23 23 22 21 21 20 17 17 12 13 14 13 13 14 10 5 1 1 5 3 4 5 4 4 6 6 10 4 5 5 10 14 11 9 18 18 18 8 8 18 12 15 13 6 7 6 8
24 23 21 23 20 21 21 14 10 15 12 13 12 13 8 8 9 2 3 4 8 2 6 10 7 13 4 5 4 10 6 11 18 16 11 19 11 21 13 14 7 20 15 6 7 8 6
24 25 24 21 21 19 17 16 11 12 11 11 12 7 5 5 12 3 3 6 3 4 4 9 12 4 2 2 5 6 4 2 6 17 9 15 20 13 15 16 15 9 15 17 17 8 6
27 25 25 23 23 20 18 19 14 12 10 9 4 5 7 8 16 4 2 9 7 3 4 6 4 5 5 8 4 4 4 8 3 4 15 4 6 11 22 16 19 14 12 8 9 8 14
26 28 25 24 20 20 16 16 16 10 9 7 4 4 3 17 10 3 6 8 10 12 5 3 3 6 5 6 7 5 3 9 13 9 10 8 4 4 10 14 19 15 13 11 9 14 12
28 27 26 23 23 19 19 17 15 11 9 4 3 4 4 11 6 2 5 10 6 8 7 6 5 6 5 6 5 6 5 7 13 15 5 4 4 6 12 6 12 17 17 17 10 12 9
28 27 28 25 23 21 21 20 18 16 14 4 4 6 4 8 8 10 2 11 12 12 10 5 6 4 2 4 5 5 4 8 9 13 10 7 4 7 8 8 5 10 11 9 12 14 18
28 27 26 27 26 25 24 22 20 20 18 7 2 4 5 5 8 16 14 11 12 12 13 8 7 6 10 13 10 8 9 5 15 11 11 5 3 5 4 4 4 3 2 3 5 7 10
30 30 30 28 28 27 26 24 23 23 22 8 4 6 7 5 13 10 16 12 18 11 11 11 8 17 14 10 9 11 7 8 7 6 6 3 5 6 6 4 4 5 7 7 9 8 8
28 29 31 32 31 30 29 28 25 26 24 10 4 4 3 6 6 15 15 15 20 18 12 11 14 8 16 18 15 14 16 13 7 4 6 6 5 7 9 11 10 12 12 12 13 15 15
28 29 30 29 31 33 33 31 30 29 27 8 8 5 3 8 13 9 4 20 20 17 16 15 13 12 12 14 12 11 10 9 10 8 4 4 3 5 10 5 9 11 16 17 13 8 7
27 28 27 28 30 31 34 34 34 34 30 11 8 4 4 9 8 12 13 16 17 18 15 11 14 14 5 1 5 11 13 15 14 14 13 6 5 1 2 3 8 3 4 9 10 8 8
27 27 28 28 28 31 33 35 37 37 37 11 8 7 6 8 15 20 18 16 18 16 17 16 10 9 8 1 3 5 6 9 12 18 16 15 7 3 4 10 13 14 8 7 7 6 4
26 26 28 28 27 29 32 33 37 38 39 16 11 9 4 6 15 17 16 15 15 15 13 15 4 7 5 3 4 6 6 3 4 7 13 16 13 7 5 6 6 5 9 4 3 5 6
28 27 24 23 25 26 29 32 35 38 40 16 9 17 8 4 10 14 17 14 11 10 6 7 8 5 5 4 4 5 5 1 4 4 6 8 10 13 12 7 4 4 7 4 8 5 12
23 22 21 19 20 24 25 29 31 36 39 22 12 14 13 5 10 16 16 14 14 14 9 6 4 4 4 7 5 4 5 6 5 3 8 10 9 7 9 7 9 3 3 3 9 10 12
19 16 16 16 19 17 20 26 28 31 36 35 8 11 12 6 4 11 14 16 18 20 9 11 7 7 7 7 6 4 4 2 7 4 5 5 6 4 7 6 4 2 6 7 7 8 9
Wind_Direction
320 323 317 311 316 309 316 324 333 330 324 323 318 320 324 326 324 317 316 316 319 318 316 313 315 326 317 256 261 15 6 124 161 179 195 196 203 217 232 230 215 235 244 243 253 253 254
291 297 295 300 306 325 327 324 324 315 309 309 314 314 318 319 320 317 314 315 312 306 303 301 306 306 281 262 314 259 343 231 205 215 211 205 215 229 283 242 226 228 241 253 255 256 246
287 286 304 317 319 326 330 337 335 321 307 309 312 308 310 310 313 311 310 308 306 299 296 292 284 276 250 247 275 235 264 264 233 241 225 225 243 228 255 251 239 256 252 250 244 249 247
304 290 288 298 312 321 330 320 324 316 323 315 311 300 296 300 303 308 311 304 296 296 299 288 239 231 252 252 263 257 252 253 243 250 239 240 237 247 248 287 229 235 236 250 211 246 221
302 300 287 291 305 302 306 311 316 311 310 312 313 313 300 301 303 307 313 304 298 300 301 197 174 215 269 134 228 253 233 232 221 215 221 226 208 225 211 233 243 221 253 215 250 207 187
288 295 295 285 289 302 305 299 303 306 312 311 313 315 313 311 309 313 317 301 300 227 108 143 200 223 245 244 198 216 181 214 191 183 203 206 202 213 219 215 227 230 233 246 246 166 225
294 283 285 287 277 288 297 296 300 302 308 310 315 317 314 314 311 317 321 316 280 204 311 262 263 261 293 332 281 214 193 194 150 183 198 195 203 212 219 221 237 268 264 257 257 157 248
291 293 294 291 289 278 287 294 293 299 309 310 320 312 313 320 319 320 299 38 60 342 295 266 251 254 255 304 301 196 205 204 191 202 203 177 223 224 235 237 232 233 250 255 260 198 250
286 285 287 286 288 281 280 283 283 306 303 317 315 307 315 323 316 285 1 66 23 339 279 291 255 254 242 213 231 230 206 231 214 218 204 212 211 222 225 220 225 232 241 251 258 219 268
283 282 280 280 275 272 273 289 286 289 301 307 313 312 315 320 265 318 61 14 323 315 286 265 241 250 194 214 224 231 212 244 213 222 211 233 235 210 218 228 219 239 233 257 256 255 258
291 287 281 282 276 268 272 274 278 280 287 300 315 318 310 317 313 286 12 313 310 231 301 37 124 67 161 193 326 177 213 226 239 223 193 210 224 224 229 226 222 247 258 240 247 249 258
283 283 283 282 281 265 267 264 268 273 289 297 309 310 310 237 230 277 307 299 253 235 253 360 70 322 214 222 271 35 178 217 236 233 217 246 272 249 229 211 221 224 214 223 230 243 239
281 277 270 272 279 268 254 257 257 280 286 295 301 304 290 257 191 164 285 250 212 236 21 0 342 324 303 260 223 213 178 189 190 186 219 221 238 248 242 218 214 223 205 206 219 211 241
281 278 286 270 266 278 270 245 266 271 273 290 298 301 261 231 181 196 279 202 230 47 284 318 316 308 257 325 222 186 206 198 219 212 232 219 217 223 223 207 190 202 201 230 239 240 254
277 281 273 273 273 273 266 253 248 255 271 287 302 268 247 208 180 155 207 212 238 228 334 332 319 294 350 347 311 191 180 248 226 215 230 203 231 183 206 219 183 186 231 243 262 265 263
275 279 277 266 269 269 267 260 238 241 260 284 282 268 241 185 166 124 183 231 231 241 11 341 314 357 339 352 4 258 185 15 339 248 232 281 223 213 205 211 214 214 185 188 216 250 249
272 275 271 269 265 270 269 276 253 214 249 274 263 240 218 168 161 183 210 226 215 250 303 321 327 307 316 341 345 359 73 67 16 335 213 233 257 131 159 210 206 206 217 232 251 224 250
273 268 267 268 265 259 266 263 239 223 223 237 241 232 158 153 193 176 216 204 190 225 222 257 274 273 299 328 325 357 43 33 3 4 53 355 300 204 187 113 213 215 220 227 233 208 235
264 261 263 260 261 257 253 253 241 225 206 219 228 232 177 203 212 209 210 213 204 210 222 224 255 248 296 312 309 341 337 4 2 8 0 336 226 217 228 226 206 207 204 238 247 261 261
266 259 254 253 253 251 249 242 238 217 216 200 220 228 206 218 235 233 206 211 202 224 235 231 252 269 271 265 264 280 290 319 340 346 321 268 335 306 275 78 48 177 245 248 249 252 252
263 258 254 250 246 243 242 239 231 215 212 189 216 221 206 186 227 228 218 207 212 204 214 211 239 242 249 261 247 248 265 316 324 355 349 331 245 251 277 278 271 258 260 254 247 253 259
271 261 251 246 241 237 232 230 228 213 207 205 206 209 207 257 240 204 218 201 222 218 194 206 221 236 230 245 249 278 296 295 287 313 344 346 254 247 250 277 273 268 259 258 261 264 255
270 261 253 247 241 233 229 222 220 210 201 209 209 223 272 236 240 226 201 211 225 220 207 233 216 235 242 245 267 283 282 275 266 272 288 299 277 221 252 257 274 270 247 250 257 238 254
267 262 259 248 240 232 225 221 215 210 206 213 197 179 216 240 236 236 227 211 223 205 208 211 228 234 277 249 301 264 256 258 247 246 237 247 224 258 240 217 242 286 317 275 227 279 281
267 261 256 251 242 229 224 218 214 210 206 204 205 199 199 234 236 248 257 244 228 216 219 215 218 255 194 213 283 249 217 236 239 230 214 218 225 215 231 223 270 273 272 231 220 273 15
280 272 264 254 245 231 222 217 212 208 206 201 206 204 208 231 230 233 228 238 227 210 209 223 242 219 147 198 209 228 208 206 180 162 206 202 215 219 185 235 234 51 90 18 297 217 27
278 273 270 254 241 237 224 213 212 204 202 203 202 196 198 236 248 230 224 224 213 201 204 172 180 195 187 183 236 215 220 212 224 211 156 187 203 218 225 245 265 295 305 239 247 33 347
272 262 259 249 243 234 224 210 208 203 199 194 199 191 193 219 245 231 233 237 215 199 188 144 144 178 179 204 223 201 223 207 242 184 175 181 189 192 226 242 259 3 206 248 1 336 337
269 259 255 250 241 230 216 203 200 200 194 190 190 190 191 217 276 247 244 255 219 185 182 177 196 156 187 208 211 210 197 222 229 237 205 230 217 215 205 216 102 98 2 39 14 341 339